Regional Weather Roundup
Issued by NWS

Home | Current Version | Previous Version | Graphics & Text | Print | Product List | Glossary On
Versions: 1 2 3 4 5 6 7 8 9 10 11 12 13 14 15 16 17 18 19 20 21 22 23 24 25 26 27 28 29 30 31 32 33 34 35 36 37 38 39 40 41 42 43 44 45 46 47 48 49 50
000
ASUS43 KMPX 301601
RWRMN
WEATHER ROUNDUP FOR MINNESOTA
NATIONAL WEATHER SERVICE TWIN CITIES/CHANHASSEN MN
1100 AM CDT FRI SEP 30 2016


NOTE: "FAIR" INDICATES FEW OR NO CLOUDS BELOW 12,000 FEET WITH NO
SIGNIFICANT WEATHER AND/OR OBSTRUCTIONS TO VISIBILITY. N/A MEANS
CURRENT SKY AND/OR WEATHER CONDITIONS ARE NOT AVAILABLE.

MNZ060>063-068>070-301700-
   Twin Cities Metro

CITY           SKY/WX    TMP DP  RH WIND       PRES   REMARKS
TWIN CITIES    MOSUNNY   60  52  74 N8        30.36F
ST PAUL        SUNNY     62  52  69 N5        30.36F
CRYSTAL        CLOUDY    55  50  83 N7        30.37S
BLAINE         CLOUDY    55  55 100 N7        30.37F
LAKEVILLE      SUNNY     61  52  72 NE7       30.34F
EDEN PRAIRIE   MOSUNNY   57  51  80 N7        30.35F
LAKEVILLE      SUNNY     61  52  72 NE7       30.34F
SOUTH ST PAUL  SUNNY     61  51  70 N5        30.35F
LAKE ELMO      FAIR      59  52  77 NE3       30.36F
$$
MNZ001>005-007-008-013>017-022>024-027-028-301700-
   Northwest Minnesota

CITY           SKY/WX    TMP DP  RH WIND       PRES   REMARKS
BEMIDJI        CLOUDY    50  50 100 SE8       30.39F FOG
HALLOCK        MOSUNNY   61  54  77 S16       30.32S
ROSEAU         SUNNY     59  54  82 S9        30.36F HAZE
WARROAD        MOSUNNY   57  54  88 SE9       30.38S
THIEF RVR FALL CLOUDY    54  50  86 SE12      30.36F
CROOKSTON      MOSUNNY   59  52  77 S13       30.34S
FOSSTON        CLOUDY    55  54  94 SE8       30.37F
DETROIT LAKES  CLOUDY    52  50  93 SE8       30.37F FOG
MOORHEAD       MOSUNNY   61  52  72 S13       30.34F
PARK RAPIDS    CLOUDY    53  50  89 SE9       30.38F
MAHNOMEN       FAIR      54  49  84 SE7       30.36F
$$
MNZ006-009>011-018-025>026-301700-
   North Central Minnesota

CITY           SKY/WX    TMP DP  RH WIND       PRES   REMARKS
BAUDETTE       CLOUDY    48  46  93 SE10      30.41S
FLAG ISLAND    MOSUNNY   55  48  76 SE10      30.37S
INTL FALLS     CLOUDY    50  48  93 SE9       30.43S
WASKISH        CLOUDY    50  48  93 SE7       30.41R
BIG FORK       CLOUDY    52  52 100 S3        30.42F FOG
GRAND RAPIDS   CLOUDY    52  50  93 VRB6      30.44S
ORR            CLOUDY    52  48  87 CALM      30.42S
COOK           CLOUDY    52  48  87 SE3       30.45S
WALKER         CLOUDY    51  50  95 SE5       30.40S
$$
MNZ012-019>021-037-301700-
   Northeast Minnesota

CITY           SKY/WX    TMP DP  RH WIND       PRES   REMARKS
DULUTH         CLOUDY    54  50  86 E10       30.43F
ELY            PTSUNNY   54  48  82 CALM      30.45S
HIBBING        CLOUDY    51  47  86 SE7       30.44S
EVELETH        CLOUDY    53  48  83 E5        30.46S
DULUTH HARBOR  CLOUDY    55  52  88 NE12      30.44F
TWO HARBORS    CLOUDY    57  52  82 E8        30.43S
SILVER BAY     CLOUDY    55  52  88 E5        30.43F
GRAND MARAIS     N/A     58  53  84 E9        30.45F
G MARAIS ARPRT MOSUNNY   57  50  77 CALM      30.47S
$$
MNZ029>031-032-039>041-046>048-054>057-064-301700-
   West Central Minnesota

CITY           SKY/WX    TMP DP  RH WIND       PRES   REMARKS
FERGUS FALLS   CLOUDY    57  55  94 SE7       30.37F
MORRIS         CLOUDY    55  54  94 SE9       30.35F
ALEXANDRIA     CLOUDY    52  52 100 SE7       30.39S FOG
ELBOW LAKE     FAIR      57  53  88 SE7       30.36F
WADENA         CLOUDY    48  48 100 SE6       30.38F FOG
GLENWOOD       CLOUDY    54  54 100 SE5       30.37F FOG
BENSON         PTSUNNY   57  54  88 S3        30.36F
ORTONVILLE     CLOUDY    52  50  93 CALM      30.35S FOG
MADISON        CLOUDY    55  55 100 SE3       30.34F FOG
WILLMAR        PTSUNNY   55  54  94 E7        30.38S
$$
MNZ033>034-036-042>043-049>051-058-059-301700-
   Central Minnesota

CITY           SKY/WX    TMP DP  RH WIND       PRES   REMARKS
ST CLOUD       CLOUDY    52  52 100 E5        30.40S FOG
SAUK CENTRE    CLOUDY    51  51 100 E7        30.39R FOG
PAYNESVILLE    CLOUDY    52  52 100 NE5       30.38F FOG
AITKIN         CLOUDY    54  46  76 E5        30.41S
PINE RIVER     CLOUDY    54  52  94 E5        30.43S
BRAINERD       CLOUDY    53  50  89 SE6       30.41S
STAPLES        CLOUDY    50  50 100 E5        30.39F
LONG PRAIRIE   CLOUDY    50  50 100 NE3       30.40S FOG
LITTLE FALLS   CLOUDY    50  48  93 E6        30.40S
LITCHFIELD     CLOUDY    55  54  94 NE6       30.38S FOG
BUFFALO        CLOUDY    53  51  94 N6        30.39F FOG
MAPLE LAKE     CLOUDY    54  54 100 E3        30.39F FOG
HUTCHINSON     CLOUDY    54  54 100 NE6       30.39S FOG
$$
MNZ037-044-045-052-053-301700-
   East Central Minnesota

CITY           SKY/WX    TMP DP  RH WIND       PRES   REMARKS
PRINCETON        N/A     54  54 100 N7        30.40S
MORA           CLOUDY    50  48  93 N3        30.42F
CAMBRIDGE      CLOUDY    55  52  88 NE6       30.38S
MOOSE LAKE     CLOUDY    54  50  87 NE5       30.41S
HINCKLEY       CLOUDY    54  50  87 N7        30.41S
CLOQUET        CLOUDY    55  48  76 NE8       30.43S
MCGREGOR       CLOUDY    54  50  87 E7        30.43S
$$
MNZ071>073-080-081-089-090-097-098-301700-
   Southwest Minnesota

CITY           SKY/WX    TMP DP  RH WIND       PRES   REMARKS
MONTEVIDEO     CLOUDY    55  55 100 SE5       30.37F FOG
GRANITE FALLS  PTSUNNY   56  53  91 E3        30.37F
CANBY          SUNNY     62  53  74 E5        30.35S
MARSHALL       SUNNY     56  51  84 SE5       30.35F
REDWOOD FALLS  CLOUDY    53  51  93 E5        30.36S FOG
OLIVIA         MOSUNNY   54  52  94 CALM      30.36S
PIPESTONE        N/A     64  52  63 SE6       30.34S
WINDOM         SUNNY     63  54  72 E7        30.35S
WORTHINGTON    SUNNY     62  52  69 E3        30.35S
JACKSON        SUNNY     64  50  59 E8        30.34F
TRACY          SUNNY     59  55  85 CALM      30.35S
$$
MNZ065>067-074>077-082>085-091>093-301700-
   South Central Minnesota

CITY           SKY/WX    TMP DP  RH WIND       PRES   REMARKS
MANKATO        SUNNY     62  53  72 NE5       30.34F
NEW ULM        SUNNY     55  54  94 N3        30.35F
ST JAMES       MOSUNNY   55  55 100 CALM      30.35F
FAIRMONT       SUNNY     64  51  62 E6        30.34F
GLENCOE        CLOUDY    53  53 100 N5        30.37S FOG
FARIBAULT      SUNNY     57  55  94 N6        30.34F
OWATONNA       SUNNY     63  54  72 NE9       30.33S
WASECA         SUNNY     59  52  77 NE6       30.35S
ALBERT LEA     SUNNY     64  52  63 NE13G21   30.31F
$$
MNZ078>079-086>088-094>096-301700-
   Southeast Minnesota

CITY           SKY/WX    TMP DP  RH WIND       PRES   REMARKS
ROCHESTER      SUNNY     63  55  75 NE10      30.33F
RED WING       SUNNY     64  52  63 E8        30.32F
STANTON        SUNNY     62  55  80 NE7       30.33F
DODGE CENTER   SUNNY     63  52  67 NE10      30.32F
WINONA         MOSUNNY   61  52  72 NE6       30.31F
AUSTIN         SUNNY     64  52  63 NE14      30.30F
PRESTON        CLOUDY    59  53  78 NE8       30.31F
$$
ABBREVIATIONS USED IN REMARKS
   TC - TEMPERATURES IN CELSIUS
  WCI - WIND CHILL INDEX
   HX - HEAT INDEX
  VSB - VISIBILITY
$$




USA.gov is the U.S. government's official web portal to all federal, state and local government web resources and services.